QPF
0.00 0.00 0.00 0.00 0.00 0.00 0.00 0.00 0.00 0.00 0.00 0.00 0.00 0.00 0.00 0.00 0.00 0.00 0.00 0.00 0.00 0.00 0.00 0.01 0.01 0.01 0.01 0.00 0.00 0.00 0.00 0.00 0.00 0.00 0.00 0.00 0.00 0.00 0.00 0.00 0.00 0.00 0.00
0.00 0.00 0.00 0.00 0.00 0.00 0.00 0.00 0.00 0.00 0.00 0.00 0.00 0.00 0.00 0.00 0.00 0.00 0.00 0.00 0.00 0.00 0.00 0.00 0.01 0.01 0.01 0.01 0.01 0.00 0.00 0.00 0.00 0.00 0.00 0.00 0.00 0.00 0.00 0.00 0.00 0.00 0.00
0.00 0.00 0.00 0.00 0.00 0.00 0.00 0.00 0.00 0.00 0.00 0.00 0.00 0.00 0.00 0.00 0.00 0.00 0.00 0.00 0.00 0.00 0.00 0.00 0.00 0.01 0.01 0.01 0.01 0.01 0.01 0.00 0.00 0.00 0.00 0.00 0.00 0.00 0.00 0.00 0.00 0.00 0.00
0.00 0.00 0.00 0.00 0.00 0.00 0.00 0.00 0.00 0.00 0.00 0.00 0.00 0.00 0.00 0.00 0.00 0.00 0.00 0.00 0.00 0.00 0.00 0.00 0.00 0.01 0.02 0.02 0.02 0.02 0.02 0.01 0.01 0.01 0.00 0.00 0.00 0.00 0.00 0.00 0.00 0.00 0.00
0.00 0.00 0.00 0.00 0.00 0.00 0.00 0.00 0.00 0.00 0.00 0.00 0.00 0.00 0.00 0.00 0.00 0.00 0.00 0.00 0.00 0.00 0.00 0.00 0.00 0.01 0.01 0.02 0.02 0.03 0.03 0.03 0.02 0.01 0.01 0.01 0.00 0.00 0.00 0.00 0.00 0.00 0.00
0.00 0.00 0.00 0.00 0.00 0.00 0.00 0.00 0.00 0.00 0.00 0.00 0.00 0.00 0.00 0.00 0.00 0.00 0.00 0.00 0.01 0.01 0.01 0.01 0.01 0.00 0.01 0.01 0.02 0.03 0.05 0.05 0.04 0.03 0.02 0.01 0.01 0.01 0.01 0.00 0.00 0.00 0.00
0.00 0.01 0.01 0.01 0.01 0.01 0.01 0.01 0.01 0.01 0.00 0.00 0.00 0.00 0.00 0.00 0.00 0.00 0.00 0.00 0.00 0.01 0.01 0.01 0.01 0.01 0.01 0.02 0.02 0.03 0.04 0.05 0.07 0.07 0.04 0.03 0.02 0.02 0.01 0.01 0.01 0.00 0.00
0.01 0.01 0.01 0.01 0.01 0.01 0.01 0.01 0.01 0.01 0.01 0.01 0.01 0.01 0.01 0.00 0.00 0.00 0.00 0.00 0.00 0.00 0.01 0.01 0.01 0.01 0.01 0.01 0.02 0.02 0.03 0.04 0.07 0.11 0.11 0.08 0.05 0.03 0.03 0.03 0.02 0.02 0.02
0.00 0.01 0.01 0.01 0.01 0.01 0.01 0.01 0.02 0.02 0.01 0.01 0.01 0.02 0.03 0.01 0.01 0.00 0.00 0.00 0.01 0.01 0.01 0.01 0.01 0.01 0.01 0.01 0.01 0.02 0.03 0.03 0.06 0.12 0.17 0.16 0.12 0.08 0.06 0.06 0.05 0.05 0.05
0.00 0.00 0.00 0.00 0.01 0.01 0.01 0.01 0.01 0.01 0.01 0.02 0.01 0.01 0.02 0.02 0.03 0.02 0.00 0.00 0.00 0.00 0.00 0.00 0.00 0.00 0.00 0.01 0.01 0.01 0.03 0.04 0.07 0.11 0.18 0.23 0.23 0.20 0.17 0.14 0.12 0.10 0.09
0.00 0.00 0.00 0.00 0.00 0.00 0.00 0.01 0.01 0.01 0.01 0.01 0.02 0.01 0.01 0.01 0.01 0.02 0.01 0.01 0.00 0.00 0.00 0.00 0.00 0.00 0.00 0.01 0.01 0.01 0.02 0.04 0.07 0.11 0.17 0.26 0.31 0.34 0.33 0.30 0.27 0.24 0.21
0.00 0.00 0.00 0.00 0.00 0.00 0.00 0.00 0.01 0.01 0.01 0.01 0.01 0.01 0.02 0.02 0.01 0.01 0.02 0.01 0.01 0.01 0.00 0.00 0.00 0.00 0.00 0.00 0.01 0.01 0.02 0.03 0.06 0.10 0.16 0.24 0.31 0.36 0.38 0.39 0.38 0.33 0.27
0.00 0.00 0.00 0.00 0.00 0.00 0.00 0.00 0.00 0.00 0.00 0.00 0.01 0.01 0.01 0.01 0.01 0.01 0.02 0.02 0.01 0.01 0.00 0.00 0.00 0.00 0.00 0.00 0.00 0.01 0.01 0.02 0.04 0.08 0.14 0.21 0.27 0.30 0.32 0.37 0.39 0.36 0.30
0.00 0.00 0.00 0.00 0.00 0.00 0.00 0.00 0.00 0.00 0.00 0.00 0.00 0.00 0.01 0.01 0.01 0.01 0.01 0.01 0.01 0.01 0.00 0.00 0.00 0.00 0.00 0.00 0.00 0.01 0.01 0.02 0.04 0.06 0.11 0.16 0.20 0.22 0.26 0.31 0.36 0.37 0.33
0.00 0.00 0.00 0.00 0.00 0.00 0.00 0.00 0.00 0.00 0.00 0.00 0.00 0.00 0.00 0.00 0.00 0.00 0.00 0.01 0.01 0.01 0.01 0.00 0.00 0.00 0.00 0.00 0.00 0.01 0.01 0.02 0.03 0.05 0.08 0.12 0.14 0.16 0.18 0.21 0.23 0.24 0.23
0.00 0.00 0.00 0.00 0.00 0.00 0.00 0.00 0.00 0.00 0.00 0.00 0.00 0.00 0.00 0.00 0.00 0.00 0.00 0.00 0.00 0.00 0.00 0.00 0.00 0.00 0.00 0.00 0.00 0.00 0.01 0.02 0.03 0.05 0.07 0.09 0.10 0.11 0.13 0.15 0.16 0.15 0.15
0.00 0.00 0.00 0.00 0.00 0.00 0.00 0.00 0.00 0.00 0.00 0.00 0.00 0.00 0.00 0.00 0.00 0.00 0.00 0.00 0.00 0.00 0.00 0.00 0.00 0.00 0.00 0.00 0.00 0.00 0.01 0.01 0.03 0.04 0.05 0.07 0.08 0.09 0.11 0.12 0.13 0.13 0.13
0.00 0.00 0.00 0.00 0.00 0.00 0.00 0.00 0.00 0.00 0.00 0.00 0.00 0.00 0.00 0.00 0.00 0.00 0.00 0.00 0.00 0.00 0.00 0.00 0.00 0.00 0.00 0.00 0.00 0.01 0.01 0.01 0.01 0.02 0.03 0.04 0.04 0.05 0.05 0.06 0.07 0.07 0.07
0.00 0.00 0.00 0.00 0.00 0.00 0.00 0.00 0.00 0.00 0.00 0.00 0.00 0.00 0.00 0.00 0.00 0.00 0.00 0.00 0.00 0.00 0.00 0.00 0.00 0.00 0.00 0.00 0.00 0.01 0.01 0.01 0.01 0.01 0.01 0.01 0.02 0.02 0.03 0.03 0.03 0.03 0.03
0.00 0.00 0.00 0.00 0.00 0.00 0.00 0.00 0.00 0.00 0.00 0.00 0.00 0.00 0.00 0.00 0.00 0.00 0.00 0.00 0.00 0.00 0.00 0.00 0.00 0.00 0.00 0.00 0.00 0.00 0.00 0.00 0.00 0.00 0.00 0.00 0.01 0.01 0.01 0.01 0.01 0.01 0.01
0.00 0.00 0.00 0.00 0.00 0.00 0.00 0.00 0.00 0.00 0.00 0.00 0.00 0.00 0.00 0.00 0.00 0.00 0.00 0.00 0.00 0.00 0.00 0.00 0.00 0.00 0.00 0.00 0.00 0.00 0.00 0.00 0.00 0.00 0.00 0.00 0.00 0.00 0.00 0.00 0.00 0.01 0.00
0.00 0.00 0.00 0.00 0.00 0.00 0.00 0.00 0.00 0.00 0.00 0.00 0.00 0.00 0.00 0.00 0.00 0.00 0.00 0.00 0.00 0.00 0.00 0.00 0.00 0.00 0.00 0.00 0.00 0.00 0.00 0.00 0.00 0.00 0.00 0.00 0.00 0.00 0.00 0.00 0.00 0.00 0.00
0.00 0.00 0.00 0.00 0.00 0.00 0.00 0.00 0.00 0.00 0.00 0.00 0.00 0.00 0.00 0.00 0.00 0.00 0.00 0.00 0.00 0.00 0.00 0.00 0.00 0.00 0.00 0.00 0.00 0.00 0.00 0.00 0.00 0.00 0.00 0.00 0.00 0.00 0.00 0.00 0.00 0.00 0.00
0.00 0.00 0.00 0.00 0.00 0.00 0.00 0.00 0.00 0.00 0.00 0.00 0.00 0.00 0.00 0.00 0.00 0.00 0.00 0.00 0.00 0.00 0.00 0.00 0.00 0.00 0.00 0.00 0.00 0.00 0.00 0.00 0.00 0.00 0.00 0.00 0.00 0.00 0.00 0.00 0.00 0.00 0.00
0.00 0.00 0.00 0.00 0.00 0.00 0.00 0.00 0.00 0.00 0.00 0.00 0.00 0.00 0.00 0.00 0.00 0.00 0.00 0.00 0.00 0.00 0.00 0.00 0.00 0.00 0.00 0.00 0.00 0.00 0.00 0.00 0.00 0.00 0.00 0.00 0.00 0.00 0.00 0.00 0.00 0.00 0.00
0.00 0.00 0.00 0.00 0.00 0.00 0.00 0.00 0.00 0.00 0.00 0.00 0.00 0.00 0.00 0.00 0.00 0.00 0.00 0.00 0.00 0.00 0.00 0.00 0.00 0.00 0.00 0.00 0.00 0.00 0.00 0.00 0.00 0.00 0.00 0.00 0.00 0.00 0.00 0.00 0.00 0.00 0.00
MSLP
1020.81 1020.97 1021.11 1021.23 1021.32 1021.39 1021.43 1021.47 1021.48 1021.48 1021.45 1021.39 1021.29 1021.18 1021.04 1020.92 1020.82 1020.78 1020.79 1020.87 1020.99 1021.13 1021.28 1021.41 1021.52 1021.58 1021.61 1021.63 1021.65 1021.67 1021.71 1021.77 1021.85 1021.93 1022.01 1022.07 1022.11 1022.13 1022.14 1022.14 1022.14 1022.14 1022.14
1020.58 1020.72 1020.85 1020.96 1021.05 1021.11 1021.16 1021.18 1021.20 1021.19 1021.16 1021.09 1021.00 1020.88 1020.75 1020.62 1020.51 1020.44 1020.42 1020.46 1020.54 1020.66 1020.79 1020.92 1021.03 1021.12 1021.19 1021.23 1021.28 1021.33 1021.39 1021.48 1021.58 1021.70 1021.82 1021.93 1022.03 1022.11 1022.17 1022.21 1022.24 1022.27 1022.29
1020.33 1020.46 1020.58 1020.69 1020.78 1020.85 1020.90 1020.93 1020.94 1020.93 1020.90 1020.84 1020.76 1020.64 1020.50 1020.36 1020.23 1020.13 1020.06 1020.05 1020.09 1020.17 1020.27 1020.39 1020.50 1020.60 1020.68 1020.75 1020.81 1020.88 1020.96 1021.07 1021.19 1021.34 1021.50 1021.67 1021.82 1021.97 1022.09 1022.20 1022.28 1022.35 1022.40
1020.06 1020.19 1020.31 1020.42 1020.52 1020.60 1020.65 1020.69 1020.71 1020.71 1020.69 1020.64 1020.56 1020.44 1020.31 1020.16 1020.00 1019.86 1019.76 1019.69 1019.68 1019.71 1019.77 1019.87 1019.97 1020.06 1020.15 1020.23 1020.30 1020.38 1020.47 1020.58 1020.72 1020.89 1021.08 1021.29 1021.51 1021.72 1021.91 1022.08 1022.22 1022.34 1022.44
1019.78 1019.91 1020.04 1020.16 1020.26 1020.34 1020.41 1020.45 1020.48 1020.49 1020.48 1020.44 1020.38 1020.28 1020.14 1019.99 1019.82 1019.65 1019.51 1019.40 1019.34 1019.33 1019.35 1019.41 1019.50 1019.58 1019.67 1019.74 1019.81 1019.88 1019.96 1020.07 1020.21 1020.38 1020.59 1020.83 1021.09 1021.35 1021.60 1021.83 1022.04 1022.22 1022.37
1019.49 1019.62 1019.75 1019.88 1019.99 1020.08 1020.15 1020.20 1020.24 1020.25 1020.26 1020.24 1020.19 1020.11 1019.99 1019.84 1019.67 1019.49 1019.32 1019.18 1019.09 1019.03 1019.03 1019.07 1019.13 1019.21 1019.28 1019.35 1019.40 1019.45 1019.51 1019.59 1019.71 1019.86 1020.06 1020.30 1020.57 1020.86 1021.15 1021.43 1021.69 1021.92 1022.14
1019.23 1019.35 1019.47 1019.60 1019.70 1019.79 1019.86 1019.92 1019.96 1019.98 1020.00 1020.00 1019.97 1019.91 1019.82 1019.69 1019.53 1019.36 1019.18 1019.03 1018.91 1018.84 1018.82 1018.84 1018.89 1018.96 1019.02 1019.07 1019.11 1019.14 1019.16 1019.20 1019.27 1019.37 1019.53 1019.74 1019.98 1020.26 1020.55 1020.85 1021.15 1021.43 1021.71
1019.00 1019.11 1019.23 1019.33 1019.43 1019.51 1019.57 1019.62 1019.66 1019.69 1019.71 1019.73 1019.73 1019.70 1019.63 1019.53 1019.39 1019.23 1019.07 1018.92 1018.80 1018.72 1018.70 1018.72 1018.77 1018.84 1018.90 1018.95 1018.97 1018.96 1018.94 1018.92 1018.92 1018.95 1019.03 1019.16 1019.34 1019.57 1019.82 1020.11 1020.42 1020.74 1021.07
1018.86 1018.95 1019.05 1019.14 1019.21 1019.27 1019.32 1019.35 1019.38 1019.41 1019.43 1019.46 1019.48 1019.48 1019.44 1019.37 1019.26 1019.12 1018.98 1018.84 1018.74 1018.68 1018.67 1018.70 1018.77 1018.85 1018.92 1018.96 1018.97 1018.93 1018.86 1018.77 1018.69 1018.62 1018.59 1018.61 1018.69 1018.83 1019.02 1019.26 1019.55 1019.89 1020.26
1018.83 1018.91 1018.99 1019.06 1019.11 1019.14 1019.16 1019.17 1019.18 1019.19 1019.22 1019.25 1019.28 1019.30 1019.29 1019.24 1019.16 1019.05 1018.93 1018.81 1018.73 1018.69 1018.71 1018.77 1018.86 1018.96 1019.05 1019.10 1019.09 1019.03 1018.92 1018.77 1018.59 1018.41 1018.26 1018.15 1018.10 1018.12 1018.21 1018.38 1018.63 1018.96 1019.36
1018.95 1019.02 1019.08 1019.13 1019.15 1019.16 1019.14 1019.12 1019.11 1019.11 1019.13 1019.16 1019.19 1019.22 1019.22 1019.19 1019.13 1019.04 1018.93 1018.84 1018.78 1018.77 1018.81 1018.90 1019.02 1019.15 1019.26 1019.33 1019.33 1019.25 1019.10 1018.88 1018.62 1018.34 1018.06 1017.82 1017.64 1017.53 1017.50 1017.59 1017.78 1018.08 1018.49
1019.22 1019.29 1019.34 1019.37 1019.37 1019.34 1019.29 1019.24 1019.20 1019.18 1019.18 1019.21 1019.24 1019.27 1019.28 1019.25 1019.20 1019.12 1019.03 1018.96 1018.91 1018.92 1018.98 1019.10 1019.25 1019.41 1019.54 1019.63 1019.64 1019.55 1019.37 1019.11 1018.78 1018.41 1018.03 1017.67 1017.36 1017.13 1017.00 1016.99 1017.11 1017.37 1017.76
1019.63 1019.71 1019.75 1019.77 1019.74 1019.68 1019.61 1019.53 1019.47 1019.42 1019.41 1019.43 1019.45 1019.48 1019.49 1019.47 1019.41 1019.33 1019.25 1019.18 1019.14 1019.15 1019.23 1019.36 1019.53 1019.71 1019.87 1019.97 1019.99 1019.91 1019.72 1019.43 1019.05 1018.62 1018.16 1017.72 1017.32 1016.99 1016.77 1016.68 1016.74 1016.95 1017.31
1020.14 1020.23 1020.27 1020.27 1020.23 1020.15 1020.05 1019.95 1019.87 1019.81 1019.79 1019.80 1019.83 1019.85 1019.85 1019.83 1019.77 1019.69 1019.60 1019.52 1019.48 1019.49 1019.57 1019.70 1019.88 1020.07 1020.24 1020.35 1020.37 1020.29 1020.10 1019.80 1019.41 1018.95 1018.46 1017.97 1017.52 1017.14 1016.86 1016.71 1016.71 1016.87 1017.19
1020.70 1020.80 1020.84 1020.83 1020.77 1020.68 1020.56 1020.45 1020.36 1020.31 1020.29 1020.30 1020.33 1020.35 1020.36 1020.33 1020.27 1020.18 1020.08 1019.99 1019.94 1019.94 1020.00 1020.12 1020.29 1020.46 1020.62 1020.73 1020.76 1020.68 1020.50 1020.21 1019.82 1019.37 1018.89 1018.40 1017.94 1017.55 1017.25 1017.07 1017.03 1017.14 1017.40
1021.26 1021.35 1021.39 1021.37 1021.31 1021.21 1021.09 1020.98 1020.90 1020.85 1020.84 1020.87 1020.91 1020.94 1020.96 1020.94 1020.88 1020.78 1020.68 1020.57 1020.50 1020.48 1020.52 1020.61 1020.74 1020.89 1021.03 1021.12 1021.13 1021.05 1020.88 1020.61 1020.25 1019.84 1019.39 1018.94 1018.52 1018.15 1017.87 1017.69 1017.63 1017.70 1017.90
1021.75 1021.84 1021.87 1021.85 1021.79 1021.69 1021.59 1021.49 1021.43 1021.41 1021.42 1021.47 1021.53 1021.58 1021.61 1021.60 1021.55 1021.46 1021.34 1021.23 1021.14 1021.09 1021.09 1021.14 1021.23 1021.34 1021.43 1021.48 1021.48 1021.39 1021.22 1020.97 1020.66 1020.29 1019.91 1019.52 1019.16 1018.85 1018.61 1018.45 1018.38 1018.42 1018.57
1022.17 1022.24 1022.27 1022.25 1022.20 1022.12 1022.04 1021.98 1021.94 1021.95 1022.00 1022.07 1022.16 1022.23 1022.28 1022.28 1022.23 1022.15 1022.03 1021.91 1021.80 1021.73 1021.69 1021.70 1021.73 1021.78 1021.82 1021.83 1021.79 1021.69 1021.52 1021.29 1021.01 1020.70 1020.39 1020.07 1019.79 1019.54 1019.35 1019.22 1019.17 1019.18 1019.28
1022.49 1022.56 1022.59 1022.59 1022.56 1022.51 1022.46 1022.43 1022.44 1022.48 1022.55 1022.65 1022.76 1022.85 1022.91 1022.93 1022.89 1022.81 1022.69 1022.57 1022.45 1022.34 1022.28 1022.24 1022.22 1022.22 1022.20 1022.16 1022.08 1021.95 1021.78 1021.56 1021.32 1021.06 1020.80 1020.55 1020.34 1020.15 1020.01 1019.91 1019.86 1019.86 1019.91
1022.74 1022.82 1022.87 1022.89 1022.89 1022.87 1022.87 1022.88 1022.92 1022.99 1023.09 1023.21 1023.33 1023.43 1023.49 1023.51 1023.48 1023.40 1023.29 1023.16 1023.03 1022.91 1022.82 1022.74 1022.68 1022.63 1022.57 1022.48 1022.36 1022.21 1022.02 1021.81 1021.59 1021.36 1021.15 1020.95 1020.78 1020.64 1020.53 1020.45 1020.40 1020.37 1020.38
1022.95 1023.05 1023.12 1023.18 1023.22 1023.25 1023.28 1023.33 1023.40 1023.49 1023.61 1023.73 1023.84 1023.94 1024.00 1024.01 1023.98 1023.90 1023.79 1023.66 1023.53 1023.40 1023.29 1023.19 1023.11 1023.02 1022.92 1022.80 1022.65 1022.48 1022.28 1022.07 1021.85 1021.65 1021.46 1021.29 1021.14 1021.02 1020.91 1020.83 1020.77 1020.72 1020.69
1023.15 1023.28 1023.39 1023.49 1023.57 1023.64 1023.71 1023.79 1023.87 1023.97 1024.08 1024.19 1024.29 1024.37 1024.41 1024.41 1024.37 1024.29 1024.18 1024.06 1023.93 1023.81 1023.69 1023.58 1023.49 1023.38 1023.26 1023.12 1022.96 1022.78 1022.58 1022.37 1022.16 1021.96 1021.77 1021.61 1021.45 1021.32 1021.20 1021.10 1021.00 1020.92 1020.85
1023.34 1023.52 1023.67 1023.81 1023.93 1024.03 1024.13 1024.22 1024.31 1024.40 1024.49 1024.58 1024.65 1024.70 1024.72 1024.71 1024.65 1024.57 1024.47 1024.35 1024.23 1024.12 1024.01 1023.92 1023.82 1023.72 1023.60 1023.47 1023.31 1023.13 1022.94 1022.74 1022.53 1022.33 1022.13 1021.95 1021.77 1021.61 1021.46 1021.31 1021.17 1021.04 1020.93
1023.54 1023.75 1023.94 1024.12 1024.26 1024.38 1024.49 1024.58 1024.66 1024.74 1024.81 1024.87 1024.91 1024.93 1024.93 1024.90 1024.84 1024.75 1024.65 1024.55 1024.45 1024.35 1024.27 1024.19 1024.11 1024.03 1023.93 1023.82 1023.69 1023.53 1023.35 1023.16 1022.96 1022.76 1022.55 1022.34 1022.14 1021.93 1021.73 1021.53 1021.33 1021.16 1021.00
1023.70 1023.95 1024.17 1024.36 1024.51 1024.64 1024.74 1024.82 1024.89 1024.95 1025.00 1025.04 1025.06 1025.06 1025.04 1025.00 1024.93 1024.85 1024.77 1024.68 1024.59 1024.52 1024.46 1024.41 1024.36 1024.30 1024.24 1024.16 1024.05 1023.93 1023.78 1023.61 1023.42 1023.22 1023.01 1022.78 1022.54 1022.29 1022.04 1021.78 1021.53 1021.30 1021.10
1023.81 1024.07 1024.30 1024.49 1024.64 1024.75 1024.85 1024.91 1024.97 1025.01 1025.05 1025.07 1025.09 1025.08 1025.06 1025.02 1024.96 1024.89 1024.82 1024.75 1024.68 1024.63 1024.59 1024.56 1024.54 1024.52 1024.48 1024.44 1024.37 1024.28 1024.16 1024.02 1023.85 1023.66 1023.45 1023.21 1022.95 1022.67 1022.37 1022.07 1021.77 1021.48 1021.23
Thickness
5700 5698 5697 5695 5694 5692 5691 5689 5688 5686 5684 5682 5679 5677 5675 5673 5671 5668 5665 5661 5657 5654 5651 5648 5645 5642 5638 5634 5631 5628 5625 5622 5620 5617 5615 5613 5611 5610 5608 5607 5606 5606 5605
5696 5695 5694 5692 5691 5690 5688 5686 5685 5683 5682 5679 5677 5675 5673 5671 5668 5666 5663 5659 5655 5651 5648 5644 5641 5638 5635 5631 5627 5624 5620 5617 5614 5612 5609 5607 5604 5602 5601 5599 5599 5598 5597
5692 5691 5691 5690 5689 5687 5685 5683 5682 5680 5678 5676 5675 5673 5671 5669 5666 5663 5660 5656 5654 5650 5645 5641 5638 5635 5631 5628 5624 5620 5616 5613 5609 5606 5603 5600 5598 5595 5594 5592 5591 5590 5590
5689 5688 5687 5686 5686 5684 5682 5680 5679 5677 5675 5673 5672 5671 5668 5665 5663 5660 5657 5654 5650 5647 5643 5639 5634 5631 5627 5624 5620 5617 5613 5608 5604 5601 5597 5594 5592 5589 5587 5585 5583 5582 5582
5685 5684 5683 5683 5682 5680 5678 5677 5675 5674 5672 5670 5669 5667 5665 5662 5660 5656 5654 5651 5647 5642 5639 5636 5631 5627 5623 5620 5616 5613 5609 5605 5600 5596 5592 5589 5586 5583 5580 5578 5576 5575 5574
5681 5680 5679 5678 5677 5676 5674 5673 5671 5669 5667 5665 5663 5661 5660 5658 5656 5653 5650 5647 5642 5638 5633 5630 5626 5623 5619 5615 5611 5608 5604 5601 5596 5591 5587 5583 5580 5577 5574 5571 5570 5568 5567
5676 5675 5674 5674 5672 5671 5671 5669 5667 5664 5661 5659 5654 5654 5656 5655 5653 5650 5646 5642 5638 5632 5628 5624 5620 5617 5614 5610 5605 5602 5599 5596 5592 5587 5582 5578 5574 5570 5567 5565 5563 5561 5560
5670 5669 5669 5668 5667 5666 5665 5664 5660 5657 5656 5652 5648 5645 5646 5650 5651 5645 5640 5634 5630 5626 5621 5617 5613 5609 5606 5603 5600 5595 5592 5589 5585 5582 5577 5573 5569 5565 5561 5558 5555 5553 5552
5662 5661 5661 5661 5660 5659 5659 5657 5655 5652 5650 5648 5644 5639 5637 5639 5641 5640 5634 5628 5623 5618 5614 5609 5605 5601 5598 5595 5591 5588 5583 5580 5577 5574 5571 5566 5562 5558 5555 5551 5548 5546 5544
5653 5652 5652 5652 5652 5651 5651 5650 5648 5645 5643 5641 5639 5635 5633 5631 5625 5627 5626 5621 5615 5610 5606 5601 5596 5593 5589 5585 5582 5577 5574 5570 5567 5565 5562 5559 5555 5551 5547 5544 5540 5538 5535
5642 5642 5642 5642 5642 5642 5641 5640 5639 5637 5636 5634 5632 5629 5626 5622 5618 5614 5614 5613 5608 5603 5597 5591 5587 5584 5579 5575 5571 5567 5564 5561 5558 5556 5554 5551 5547 5543 5539 5536 5533 5529 5527
5632 5631 5631 5631 5631 5631 5631 5630 5629 5628 5627 5625 5623 5621 5619 5615 5612 5608 5606 5604 5600 5595 5588 5581 5577 5572 5567 5563 5560 5556 5553 5550 5548 5546 5544 5542 5538 5534 5530 5527 5523 5520 5518
5622 5620 5620 5620 5620 5620 5619 5619 5619 5618 5616 5614 5613 5610 5608 5605 5602 5599 5596 5594 5590 5586 5579 5571 5563 5559 5555 5551 5548 5545 5543 5540 5538 5537 5534 5532 5528 5524 5520 5517 5514 5511 5509
5609 5608 5608 5608 5608 5608 5608 5607 5607 5605 5604 5602 5600 5597 5595 5591 5588 5586 5583 5581 5579 5576 5571 5563 5553 5546 5542 5539 5536 5534 5533 5530 5528 5526 5524 5521 5517 5513 5509 5506 5503 5501 5499
5595 5595 5595 5596 5596 5595 5595 5595 5594 5592 5591 5588 5586 5584 5581 5576 5573 5571 5569 5567 5567 5567 5564 5553 5543 5535 5531 5528 5525 5523 5521 5519 5517 5516 5513 5510 5506 5501 5498 5495 5492 5490 5489
5583 5583 5583 5583 5583 5583 5583 5582 5581 5579 5577 5574 5572 5570 5566 5563 5560 5557 5555 5553 5552 5552 5551 5539 5529 5523 5520 5517 5514 5512 5510 5508 5506 5504 5501 5498 5494 5490 5487 5484 5481 5479 5478
5570 5570 5571 5571 5570 5570 5570 5569 5568 5566 5564 5561 5558 5556 5552 5550 5547 5545 5542 5541 5539 5538 5538 5527 5518 5512 5509 5506 5503 5501 5499 5496 5494 5491 5489 5486 5483 5479 5476 5473 5471 5469 5467
5557 5557 5558 5558 5557 5557 5556 5556 5554 5552 5551 5548 5545 5543 5540 5538 5535 5532 5530 5528 5526 5523 5523 5518 5508 5502 5498 5495 5492 5490 5487 5484 5481 5479 5476 5474 5471 5468 5466 5463 5462 5460 5457
5544 5544 5545 5544 5544 5543 5542 5541 5540 5538 5536 5534 5532 5530 5528 5526 5523 5520 5518 5516 5514 5512 5509 5506 5499 5492 5488 5484 5482 5479 5476 5473 5470 5467 5465 5462 5460 5458 5456 5453 5452 5450 5448
5531 5531 5531 5530 5530 5529 5528 5527 5526 5524 5522 5520 5518 5516 5515 5513 5511 5509 5506 5504 5502 5501 5498 5494 5489 5483 5479 5474 5472 5470 5467 5463 5460 5456 5454 5452 5450 5448 5446 5444 5442 5440 5438
5518 5518 5518 5517 5516 5516 5515 5514 5512 5511 5509 5507 5505 5503 5501 5499 5498 5497 5495 5493 5491 5490 5487 5483 5478 5474 5470 5466 5463 5459 5457 5454 5451 5446 5445 5443 5441 5439 5437 5435 5432 5430 5429
5505 5505 5505 5505 5504 5503 5501 5500 5500 5498 5496 5495 5493 5491 5489 5487 5486 5484 5481 5479 5478 5476 5473 5471 5468 5465 5460 5455 5452 5448 5446 5445 5444 5437 5435 5435 5432 5430 5428 5425 5422 5420 5419
5494 5493 5492 5492 5492 5490 5489 5488 5487 5486 5484 5483 5482 5480 5479 5476 5475 5473 5470 5468 5465 5462 5459 5459 5457 5453 5448 5444 5440 5437 5434 5431 5429 5426 5423 5426 5423 5421 5417 5414 5411 5409 5408
5482 5481 5480 5480 5479 5478 5477 5476 5475 5474 5474 5472 5471 5470 5470 5468 5465 5463 5461 5458 5456 5452 5449 5446 5444 5439 5435 5431 5428 5424 5421 5419 5418 5415 5411 5412 5412 5409 5406 5403 5399 5397 5396
5471 5470 5469 5469 5468 5467 5467 5466 5465 5465 5464 5463 5462 5461 5460 5459 5456 5453 5451 5449 5446 5442 5437 5434 5430 5427 5423 5419 5416 5415 5411 5410 5410 5407 5400 5398 5398 5395 5393 5392 5388 5384 5382
5462 5461 5459 5459 5458 5459 5458 5457 5456 5457 5457 5455 5454 5452 5450 5449 5447 5444 5443 5440 5438 5434 5429 5425 5422 5418 5414 5410 5406 5403 5399 5396 5395 5394 5388 5383 5381 5378 5379 5379 5374 5372 5370